[[{"header":{"parameterUnit":"m.s-1","parameterCategory":1,"la1":30.2991,"la2":30.254,"lo1":-89.0895,"lo2":-89.0444,"dy":0.0017,"dx":0.0017,"nx":28,"ny":28,"refTime":"2024-02-06T03:00:00:Z","depth":0,"parameterNumber":2,"parameterNumberName":"U-component_of_WINDS"},"data":[0,0,0,0,0,0,0,0,0,0,0,0,0,0,0,0,0,0,0,0,0,0,0,0,0,0,0,0,0,0,0,0,0,0,0,0,0,0,0,0,0,0,0,0,0,0,0,0,0,0,0,0,0,0,0,0,0,0,2.0431,2.0431,0,2.0424,2.0423,2.0423,2.0377,2.0375,2.0374,2.0373,2.0366,2.0367,2.0368,0,0,0,0,0,0,0,0,0,0,0,0,0,2.0406,2.0406,2.0431,2.0431,2.0431,2.0424,2.0423,2.0423,2.0377,2.0375,2.0374,2.0373,2.0366,2.0367,2.0368,0,0,0,0,0,0,0,0,0,0,0,0,0,2.0409,2.0407,2.0431,2.0407,2.0404,2.0424,2.0423,2.0423,2.0377,2.0375,2.0374,2.0372,2.0365,2.0367,2.0368,2.041,0,0,2.0372,2.0373,0,0,0,0,0,0,0,0,2.0409,2.041,2.041,2.0408,2.0406,2.0399,2.0412,2.0419,2.0377,2.0387,2.0373,2.0371,2.0379,2.0379,2.0381,2.041,2.0409,2.0372,2.0373,2.0373,2.0374,0,0,0,0,0,0,0,2.0409,2.041,2.0428,2.041,2.0408,2.0396,2.0395,2.0413,2.0393,2.0386,2.0383,2.0383,2.0377,2.038,2.038,2.0409,2.0372,2.0373,2.0374,2.0375,2.0473,2.0475,0,0,0,0,0,0,2.0412,2.0411,2.0428,2.0428,2.0403,2.0398,2.0397,2.0403,2.0392,2.0389,2.0384,2.0381,2.0378,2.0379,2.038,2.0429,2.0373,2.0375,2.0375,2.0471,2.0474,2.0476,0,0,0,0,0,0,2.0412,2.0414,2.0428,2.0418,2.0419,2.04,2.0408,2.0404,2.0407,2.0391,2.0387,2.0391,2.0377,2.0378,2.0403,2.0428,2.0375,2.0376,2.0469,2.0472,2.0475,2.0527,0,0,0,0,0,0,2.0411,2.0414,2.043,2.0419,2.042,2.0452,2.0409,2.0405,2.0409,2.0404,2.0396,2.0393,2.0376,2.0401,2.0404,2.0429,2.0377,2.0467,2.0471,2.0474,2.0523,2.0531,2.0538,0,0,0,0,0,2.041,2.0445,2.0431,2.0433,2.0439,2.0453,2.0454,2.0433,2.0411,2.0427,2.0417,2.0393,2.0425,2.0404,2.0407,2.0433,2.0465,2.047,2.0474,2.052,2.053,2.0538,0,0,0,0,0,0,2.0459,2.0443,2.0427,2.0459,2.0458,2.0445,2.0464,2.0445,2.045,2.0445,2.042,2.0418,2.0447,2.0442,2.042,2.0473,2.0441,2.0446,2.0475,2.0485,2.0492,2.0492,2.0379,0,0,0,0,0,2.0473,2.0486,2.0471,2.0501,2.0501,2.0483,2.0488,2.0473,2.0471,2.047,2.0461,2.0461,2.047,2.0477,2.0485,2.0522,2.052,2.0541,2.0549,2.0555,2.056,2.058,2.0589,2.0489,2.0489,2.0489,0,0,2.0503,2.0496,2.0505,2.051,2.0507,2.0521,2.0483,2.0499,2.0509,2.0472,2.0495,2.0489,2.0487,2.0518,2.0531,2.0515,2.0587,2.0561,2.0566,2.0567,2.0585,2.0594,2.0603,2.0492,2.0492,2.0491,0,0,2.0564,2.056,2.0584,2.0582,2.0579,2.0567,2.0573,2.0563,2.0558,2.0581,2.0554,2.0566,2.0583,2.0583,2.0585,2.0647,2.0626,2.0651,2.069,2.071,2.0718,2.0725,2.0747,2.0755,2.0655,2.0655,2.0655,0,2.0601,2.0621,2.0599,2.0617,2.062,2.0588,2.0613,2.0612,2.0612,2.0615,2.0597,2.0618,2.0614,2.0645,2.0661,2.0663,2.067,2.0651,2.0718,2.0725,2.0731,2.0752,2.0761,2.0658,2.0658,2.0658,2.0657,0,2.0667,2.0681,2.0701,2.0702,2.0707,2.0729,2.0711,2.0719,2.0704,2.0694,2.0718,2.0712,2.0719,2.0725,2.071,2.0754,2.0744,2.0723,2.069,2.0744,2.0763,2.0771,2.0663,2.0661,2.0661,2.066,0,0,2.0757,2.0746,2.0753,2.0754,2.0748,2.0759,2.078,2.0786,2.0794,2.0795,2.0812,2.0828,2.0808,2.0811,2.0795,2.0813,2.0863,2.0789,2.0788,2.0803,2.0912,2.0928,2.0938,2.0849,2.0851,2.0852,2.0912,0,2.0815,2.0849,2.0831,2.0867,2.0881,2.0851,2.0869,2.0868,2.086,2.087,2.0861,2.0873,2.0845,2.0847,2.0863,2.0854,2.0884,2.0849,2.0865,2.0865,2.0866,2.0948,2.0965,2.1022,2.0919,2.0921,2.0922,0,2.0888,2.0892,2.093,2.0923,2.0928,2.0944,2.0949,2.096,2.0958,2.0951,2.0955,2.0936,2.0956,2.0924,2.0951,2.0928,2.0933,2.093,2.0932,2.0932,2.0896,2.095,2.1039,2.1048,2.0933,2.0932,2.0932,0,2.095,2.0965,2.099,2.0991,2.0984,2.0996,2.0993,2.099,2.0996,2.1,2.1004,2.1011,2.1015,2.1021,2.1005,2.0983,2.1035,2.1001,2.1029,2.103,2.1041,2.104,2.1132,2.1045,2.1045,2.1045,2.1045,0,2.1017,2.1041,2.1018,2.1033,2.106,2.1039,2.1067,2.1061,2.1059,2.1073,2.1048,2.1061,2.1039,2.1051,2.1038,2.1063,2.1065,2.106,2.1056,2.1062,2.1063,2.1065,2.106,2.1047,2.1047,2.1046,2.1046,0,2.109,2.1075,2.1101,2.1092,2.109,2.111,2.1103,2.1117,2.1107,2.1125,2.1129,2.1114,2.1126,2.1111,2.1122,2.1114,2.1148,2.1138,2.1148,2.1145,2.1174,2.1172,2.127,2.1282,2.1188,2.1189,2.119,0,2.1133,2.1151,2.1145,2.1152,2.1151,2.1164,2.117,2.115,2.1157,2.1158,2.1172,2.1183,2.119,2.1212,2.1202,2.1211,2.1201,2.1235,2.1202,2.1207,2.1201,2.12,2.1202,2.1242,2.1243,2.1244,2.1244,0,2.1212,2.1204,2.1213,2.1221,2.1228,2.1233,2.1235,2.1243,2.1223,2.1232,2.1245,2.1251,2.1263,2.1274,2.128,2.1277,2.1258,2.1255,2.1262,2.1268,2.1273,2.127,2.1166,2.1253,2.1252,2.1251,2.1251,2.125,2.1272,2.1287,2.1285,2.1296,2.1296,2.1299,2.1312,2.1305,2.1315,2.1323,2.1311,2.1327,2.1326,2.1333,2.1333,2.1345,2.1331,2.1341,2.1343,2.1346,2.135,2.1271,2.1346,2.1346,2.1346,2.1346,2.1345,0,2.1349,2.1347,2.1357,2.1362,2.1371,2.1352,2.1355,2.1363,2.1378,2.1379,2.1387,2.1402,2.1413,2.1404,2.1413,2.1425,2.1416,2.1428,2.1427,2.1427,2.1363,2.1356,2.1435,2.1435,2.1435,2.1435,2.1435,2.1435,2.139,2.1415,2.1407,2.1432,2.1429,2.1445,2.1448,2.1451,2.1452,2.147,2.1479,2.1473,2.1471,2.148,2.1489,2.1486,2.1491,2.1506,2.15,2.144,2.1431,2.1423,2.1416,2.1507,2.1507,2.1563,2.1563,2.1564]},{"header":{"parameterUnit":"m.s-1","parameterCategory":1,"la1":30.2991,"la2":30.254,"lo1":-89.0895,"lo2":-89.0444,"dy":0.0017,"dx":0.0017,"nx":28,"ny":28,"refTime":"2024-02-06T03:00:00:Z","depth":0,"parameterNumber":3,"parameterNumberName":"V-component_of_WINDS"},"data":[0,0,0,0,0,0,0,0,0,0,0,0,0,0,0,0,0,0,0,0,0,0,0,0,0,0,0,0,0,0,0,0,0,0,0,0,0,0,0,0,0,0,0,0,0,0,0,0,0,0,0,0,0,0,0,0,0,0,-3.8642,-3.8643,0,-3.8718,-3.8719,-3.872,-3.8679,-3.8676,-3.8674,-3.8672,-3.8749,-3.8753,-3.8756,0,0,0,0,0,0,0,0,0,0,0,0,0,-3.846,-3.8464,-3.8642,-3.8643,-3.8644,-3.8718,-3.8719,-3.872,-3.8679,-3.8676,-3.8674,-3.8671,-3.8747,-3.8752,-3.8757,0,0,0,0,0,0,0,0,0,0,0,0,0,-3.8538,-3.8465,-3.8642,-3.8632,-3.8632,-3.8718,-3.8719,-3.872,-3.8679,-3.8676,-3.8673,-3.867,-3.8746,-3.8752,-3.8757,-3.8856,0,0,-3.8776,-3.8778,0,0,0,0,0,0,0,0,-3.8534,-3.8545,-3.8633,-3.8633,-3.8633,-3.8686,-3.8683,-3.8766,-3.868,-3.8661,-3.8672,-3.8669,-3.873,-3.8737,-3.8758,-3.886,-3.8863,-3.8776,-3.878,-3.8782,-3.8784,0,0,0,0,0,0,0,-3.8528,-3.8541,-3.8672,-3.8634,-3.8634,-3.8624,-3.8632,-3.8698,-3.8712,-3.8663,-3.866,-3.867,-3.873,-3.8753,-3.876,-3.8864,-3.8776,-3.8781,-3.8785,-3.8787,-3.9052,-3.9055,0,0,0,0,0,0,-3.8524,-3.8537,-3.8669,-3.8674,-3.8575,-3.863,-3.8638,-3.8672,-3.8711,-3.8714,-3.8672,-3.8667,-3.8744,-3.8753,-3.8762,-3.8882,-3.8782,-3.8788,-3.8791,-3.9049,-3.9053,-3.9056,0,0,0,0,0,0,-3.852,-3.8536,-3.8666,-3.8605,-3.8621,-3.8636,-3.8674,-3.8675,-3.8698,-3.8718,-3.8721,-3.8693,-3.8742,-3.8754,-3.8834,-3.8884,-3.879,-3.8796,-3.9044,-3.905,-3.9055,-3.912,0,0,0,0,0,0,-3.8515,-3.8535,-3.8573,-3.8606,-3.8624,-3.8737,-3.8677,-3.8679,-3.8708,-3.8703,-3.8739,-3.8742,-3.874,-3.8825,-3.8839,-3.889,-3.88,-3.904,-3.9047,-3.9053,-3.9114,-3.9127,-3.9139,0,0,0,0,0,-3.8509,-3.8587,-3.8575,-3.8591,-3.8672,-3.874,-3.875,-3.8748,-3.8713,-3.8751,-3.8764,-3.874,-3.8876,-3.8833,-3.8849,-3.8903,-3.9037,-3.9045,-3.9052,-3.9108,-3.9125,-3.9138,0,0,0,0,0,0,-3.8558,-3.8591,-3.8578,-3.867,-3.8702,-3.8733,-3.8781,-3.8765,-3.8807,-3.88,-3.8795,-3.8803,-3.8887,-3.8902,-3.8855,-3.9001,-3.8951,-3.8962,-3.8988,-3.9003,-3.9016,-3.901,-3.8805,0,0,0,0,0,-3.858,-3.8633,-3.8659,-3.8737,-3.8755,-3.8765,-3.8794,-3.879,-3.8823,-3.8837,-3.8856,-3.8889,-3.8939,-3.8972,-3.9019,-3.9116,-3.9124,-3.916,-3.9173,-3.9183,-3.9193,-3.9247,-3.9264,-3.9082,-3.9082,-3.9082,0,0,-3.8625,-3.865,-3.8683,-3.8748,-3.8773,-3.8828,-3.8777,-3.8837,-3.8878,-3.8845,-3.8923,-3.8938,-3.8974,-3.9064,-3.9104,-3.9079,-3.9245,-3.9193,-3.9201,-3.9205,-3.9257,-3.9274,-3.9289,-3.9087,-3.9087,-3.9086,0,0,-3.8736,-3.8759,-3.8828,-3.8855,-3.8893,-3.89,-3.8917,-3.895,-3.8959,-3.9037,-3.9014,-3.9063,-3.9148,-3.9176,-3.9201,-3.9324,-3.9305,-3.934,-3.9405,-3.9457,-3.9472,-3.9484,-3.953,-3.9546,-3.9349,-3.935,-3.935,0,-3.8787,-3.8869,-3.8865,-3.8928,-3.8958,-3.8932,-3.9002,-3.9028,-3.9079,-3.91,-3.9072,-3.9181,-3.9203,-3.93,-3.933,-3.9351,-3.937,-3.9336,-3.947,-3.9483,-3.9495,-3.9538,-3.9554,-3.9354,-3.9353,-3.9353,-3.9352,0,-3.8931,-3.8988,-3.9039,-3.9092,-3.9127,-3.9193,-3.9199,-3.9235,-3.9228,-3.9238,-3.9317,-3.9344,-3.9397,-3.9419,-3.9411,-3.9515,-3.9499,-3.947,-3.942,-3.9516,-3.9557,-3.9573,-3.936,-3.9358,-3.9357,-3.9356,0,0,-3.9074,-3.9125,-3.9143,-3.9168,-3.9209,-3.9254,-3.9319,-3.9371,-3.9403,-3.944,-3.9495,-3.9569,-3.9544,-3.9572,-3.9568,-3.9614,-3.9712,-3.9581,-3.9581,-3.9605,-3.9829,-3.985,-3.9869,-3.9699,-3.9702,-3.9704,-3.9826,0,-3.9188,-3.9303,-3.9302,-3.9409,-3.9462,-3.944,-3.9497,-3.9528,-3.954,-3.9587,-3.9599,-3.9652,-3.9614,-3.9632,-3.9676,-3.9691,-3.9757,-3.9682,-3.975,-3.9753,-3.9743,-3.989,-3.9913,-4.0027,-3.9842,-3.9844,-3.9846,0,-3.9337,-3.938,-3.9492,-3.9528,-3.955,-3.9602,-3.9651,-3.9696,-3.9732,-3.9737,-3.977,-3.9759,-3.9825,-3.9773,-3.9865,-3.9814,-3.9842,-3.9854,-3.9858,-3.9865,-3.9806,-3.9902,-4.0062,-4.008,-3.9871,-3.9869,-3.9867,0,-3.9432,-3.9518,-3.9597,-3.9618,-3.9661,-3.9698,-3.9717,-3.975,-3.9782,-3.9825,-3.9846,-3.9895,-3.9923,-3.9961,-3.9964,-3.9925,-4.0058,-4.0005,-4.0064,-4.0064,-4.0093,-4.0092,-4.0261,-4.011,-4.011,-4.0109,-4.0109,0,-3.956,-3.963,-3.964,-3.9689,-3.9767,-3.9765,-3.9842,-3.9858,-3.9888,-3.9939,-3.9922,-3.997,-3.9971,-4.002,-4.0023,-4.01,-4.0112,-4.0118,-4.0118,-4.012,-4.012,-4.0139,-4.0131,-4.0114,-4.0113,-4.0112,-4.0111,0,-3.968,-3.9689,-3.9774,-3.9808,-3.9818,-3.9874,-3.9904,-3.995,-3.996,-4.0025,-4.004,-4.0056,-4.0114,-4.012,-4.0187,-4.0189,-4.0282,-4.0273,-4.027,-4.0269,-4.0328,-4.0323,-4.0517,-4.0543,-4.0374,-4.0375,-4.0377,0,-3.9761,-3.9815,-3.9856,-3.9889,-3.9911,-3.9965,-3.9999,-3.9999,-4.0035,-4.0081,-4.0122,-4.0178,-4.0223,-4.0316,-4.0333,-4.0385,-4.0377,-4.0442,-4.0385,-4.0386,-4.038,-4.0377,-4.0383,-4.0453,-4.0455,-4.0456,-4.0458,0,-3.9906,-3.9909,-3.9958,-4.0009,-4.005,-4.009,-4.0128,-4.0156,-4.0162,-4.0203,-4.0262,-4.0297,-4.0366,-4.0423,-4.0473,-4.0493,-4.0477,-4.0476,-4.0492,-4.0495,-4.0492,-4.0496,-4.0301,-4.0471,-4.047,-4.0469,-4.0468,-4.0468,-4.001,-4.0057,-4.0094,-4.0149,-4.0178,-4.0214,-4.026,-4.0277,-4.0326,-4.0384,-4.0381,-4.0447,-4.0482,-4.0549,-4.0573,-4.0624,-4.0603,-4.0626,-4.0633,-4.0639,-4.0646,-4.0484,-4.0633,-4.0633,-4.0632,-4.0632,-4.0632,0,-4.0154,-4.0177,-4.0229,-4.0283,-4.0327,-4.0309,-4.035,-4.0388,-4.0447,-4.0482,-4.0527,-4.0596,-4.0651,-4.0673,-4.0727,-4.0764,-4.0758,-4.0778,-4.0776,-4.0781,-4.0661,-4.0642,-4.0782,-4.0782,-4.0782,-4.0782,-4.0782,-4.0782,-4.0235,-4.0314,-4.0322,-4.0415,-4.0437,-4.0503,-4.0528,-4.0562,-4.059,-4.0668,-4.0714,-4.0728,-4.0759,-4.0815,-4.0865,-4.087,-4.0891,-4.0915,-4.0917,-4.0804,-4.0789,-4.0775,-4.0757,-4.0919,-4.0919,-4.1032,-4.1033,-4.1034]}]]